Regional Weather Roundup
Issued by NWS Goodland, KS

Home | Current Version | Previous Version | Graphics & Text | Print | Product List | Glossary On
Versions: 1 2 3 4 5 6 7 8 9 10 11 12 13 14 15 16 17 18 19 20 21 22 23 24 25 26 27 28 29 30 31 32 33 34 35 36 37 38 39 40 41 42 43 44 45 46 47 48 49 50
348
ASUS43 KGLD 212359
RWRGLD

GOODLAND FORECAST AREA HOURLY WEATHER ROUNDUP
NATIONAL WEATHER SERVICE GOODLAND KS
600 PM MDT THU MAY 21 2015

...OFFICIAL OBSERVATIONS...

CITY           SKY/WX    TMP DP  RH WIND       PRES   REMARKS
GOODLAND KS    CLOUDY    55  44  66 S15       30.17F
HILL CITY KS   MOSUNNY   61  40  45 SE8       30.18F
IMPERIAL NEB   CLOUDY    57  43  59 SE12      30.17F
MCCOOK NEB     PTSUNNY   62  41  46 SE10      30.17F
AKRON CO       CLOUDY    53  44  71 SE20G25   30.14F
BURLINGTON CO  CLOUDY    53  43  68 SE14      30.17F
LIMON CO       CLOUDY    48  43  82 SE18      30.15F
$$

...UNOFFICIAL OBSERVATIONS...

CITY           SKY/WX    TMP DP  RH WIND       PRES   REMARKS
COLBY KS       PTSUNNY   61  46  59 SE9       30.18F
GOVE KS          N/A     59  32  36 MISG        N/A
LENORA KS        N/A     61  32  33 MISG        N/A
NORTON KS      SUNNY     61  34  36 SE9       30.18S
SHARON SPRINGS   N/A     55  46  73 MISG        N/A
KIT CARSON CO    N/A     52  44  75 MISG        N/A
YUMA CO          N/A     55  44  66 SE9G18      N/A
$$



USA.gov is the U.S. government's official web portal to all federal, state and local government web resources and services.